Regional Weather Roundup
Issued by NWS

Home | Current Version | Previous Version | Graphics & Text | Print | Product List | Glossary On
Versions: 1 2 3 4 5 6 7 8 9 10 11 12 13 14 15 16 17 18 19 20 21 22 23 24 25 26 27 28 29 30 31 32 33 34 35 36 37 38 39 40 41 42 43 44 45 46 47 48 49 50
000
ASUS43 KOAX 022302
RWRNE

WEATHER ROUNDUP FOR NEBRASKA
NATIONAL WEATHER SERVICE OMAHA NE
600 PM CDT TUE SEP 02 2014

NOTES: SATELLITE DATA IS BEING USED TO AUGMENT CLOUD COVER ABOVE
       12000 FEET.
       "FAIR" INDICATES FEW OR NO CLOUDS BELOW 12,000 FEET WITH NO
       SIGNIFICANT WEATHER AND/OR OBSTRUCTIONS TO VISIBILITY.

  * THESE STATIONS DO NOT REPORT WEATHER SUCH AS RAIN...SNOW OR FOG.

NEZ001>004-019>022-054>056-030000-
NEBRASKA PANHANDLE

CITY           SKY/WX    TMP DP  RH WIND       PRES   REMARKS
SCOTTSBLUFF    SUNNY     88  37  16 VRB3      29.88F
ALLIANCE       SUNNY     85  41  21 W8        29.89F
CHADRON        SUNNY     86  41  20 NE6       29.84F
KIMBALL        SUNNY     85  40  20 S10       29.94F
SIDNEY         SUNNY     86  46  24 S15       29.94F
$$

NEZ057>060-069>072-079>082-030000-
SOUTHWEST NEBRASKA

CITY           SKY/WX    TMP DP  RH WIND       PRES   REMARKS
NORTH PLATTE   MOSUNNY   83  58  42 S13       29.90F
IMPERIAL       SUNNY     85  53  33 S17G24    29.92F
LEXINGTON      SUNNY     82  62  50 S12       29.92F
MCCOOK         LGT RAIN  86  57  37 S13G23    29.92F
OGALLALA       SUNNY     83  56  39 S14G22    29.90F
$$

NEZ005>010-023>029-035>040-094-030000-
NORTH CENTRAL NEBRASKA

CITY           SKY/WX    TMP DP  RH WIND       PRES   REMARKS
VALENTINE      PTSUNNY   82  57  42 S10       29.86F
AINSWORTH      MOSUNNY   80  61  52 S12G17    29.90S
BROKEN BOW     MOSUNNY   81  61  50 S16G25    29.92F
O`NEILL        SUNNY     80  55  42 S8        29.91F
ORD            SUNNY     79  58  48 S13G20    29.91F
THEDFORD       MOSUNNY   82  62  51 S21       29.91F
$$

NEZ041-046>049-061>064-073>077-083>087-030000-
SOUTH CENTRAL NEBRASKA

CITY           SKY/WX    TMP DP  RH WIND       PRES   REMARKS
GRAND ISLAND   SUNNY     81  59  47 S8        29.94F
AURORA         SUNNY     79  56  45 S6        29.94F
HASTINGS       SUNNY     80  56  43 S7        29.94F
HEBRON         SUNNY     82  53  35 CALM      29.93F
HOLDREGE       SUNNY     81  59  47 S10G16    29.93F
KEARNEY *      SUNNY     81  59  47 SE9       29.94F
YORK           SUNNY     77 N/A N/A SE5       29.94F
$$

NEZ011>018-030>034-042>045-030000-
NORTHEAST NEBRASKA

CITY           SKY/WX    TMP DP  RH WIND       PRES   REMARKS
NORFOLK        SUNNY     77  56  48 S8        29.93F
ALBION         SUNNY     76  58  52 S6        29.93F
BLAIR          SUNNY     79  58  48 CALM      29.94F
FREMONT        SUNNY     79  54  41 CALM      29.94F
TEKAMAH        SUNNY     78  58  49 SW3       29.93F
WAYNE          SUNNY     75  60  57 SW6       29.94F
$$

NEZ050>053-065>068-078-088>093-030000-
SOUTHEAST NEBRASKA

CITY           SKY/WX    TMP DP  RH WIND       PRES   REMARKS
LINCOLN        SUNNY     83  58  42 N6        29.94F
OMAHA EPPLEY   MOSUNNY   82  54  37 CALM      29.93F
BEATRICE       SUNNY     83  58  42 NW3       29.93F
FALLS CITY     SUNNY     85  61  44 N3        29.92F
NEBRASKA CITY  SUNNY     81  58  45 N5        29.93F
PLATTSMOUTH    SUNNY     80  55  42 CALM      29.94F
$$

NEZ044-045-051>053-067-030000-
OMAHA AREA

CITY           SKY/WX    TMP DP  RH WIND       PRES   REMARKS
OMAHA EPPLEY   MOSUNNY   82  54  37 CALM      29.93F
BLAIR          SUNNY     79  58  48 CALM      29.94F
FREMONT        SUNNY     79  54  41 CALM      29.94F
MILLARD        SUNNY     80  57  45 W5        29.93F
OFFUTT AFB     SUNNY     80  59  48 NW3       29.93F
PLATTSMOUTH    SUNNY     80  55  42 CALM      29.94F
WAHOO          FAIR      80  52  37 CALM      29.93F
$$


USA.gov is the U.S. government's official web portal to all federal, state and local government web resources and services.